| time (UTC) | temp C | wind direction | speed KPH | gust KPH | rain 1hr cm | rain 24hr cm | rain mn cm | humidity % | barometer mb |
| 20260904000032 | 12 | 49 | 4.8 | 9.7 | 0.08 | 0.71 | 0.10 | 83 | 1011.6 |
| 20260903234644 | 12 | 53 | 6.4 | 11.3 | 0.08 | 0.71 | 0.10 | 82 | 1011.6 |
| 20260903233032 | 13 | 26 | 4.8 | 12.9 | 0.08 | 0.76 | 0.05 | 77 | 1011.9 |
| 20260903231531 | 14 | 305 | 4.8 | 16.1 | 0.03 | 0.71 | 0.03 | 72 | 1011.9 |
| 20260903230032 | 15 | 325 | 4.8 | 16.1 | 0.00 | 0.71 | 0.03 | 69 | 1011.8 |
| 20260903223030 | 17 | 294 | 6.4 | 17.7 | 0.00 | 0.71 | 0.03 | 66 | 1011.8 |
| 20260903221530 | 17 | 311 | 6.4 | 17.7 | 0.00 | 0.71 | 0.03 | 67 | 1011.7 |
| 20260903220033 | 17 | 342 | 4.8 | 9.7 | 0.00 | 0.76 | 0.03 | 68 | 1011.7 |
| 20260903211532 | 16 | 272 | 4.8 | 11.3 | 0.00 | 0.81 | 0.03 | 70 | 1011.8 |
| 20260903210031 | 16 | 288 | 4.8 | 11.3 | 0.00 | 0.84 | 0.03 | 70 | 1012.0 |
| 20260903204609 | 16 | 304 | 6.4 | 14.5 | 0.00 | 0.86 | 0.03 | 71 | 1012.0 |
| 20260903203030 | 16 | 291 | 6.4 | 12.9 | 0.00 | 0.89 | 0.03 | 70 | 1012.0 |
| 20260903201531 | 17 | 289 | 6.4 | 11.3 | 0.00 | 0.89 | 0.03 | 73 | 1012.2 |
| 20260903194529 | 16 | 288 | 6.4 | 11.3 | 0.00 | 0.91 | 0.03 | 74 | 1012.4 |
| 20260903193030 | 16 | 4 | 6.4 | 14.5 | 0.00 | 0.91 | 0.03 | 76 | 1012.5 |
| 20260903191532 | 15 | 12 | 6.4 | 12.9 | 0.00 | 0.91 | 0.03 | 79 | 1012.7 |
| 20260903184532 | 15 | 332 | 6.4 | 12.9 | 0.00 | 0.91 | 0.03 | 80 | 1013.0 |
| 20260903183029 | 16 | 307 | 6.4 | 14.5 | 0.00 | 0.91 | 0.03 | 78 | 1012.9 |
| 20260903180028 | 14 | 32 | 6.4 | 14.5 | 0.00 | 0.91 | 0.03 | 85 | 1012.9 |
| 20260903174531 | 13 | 48 | 4.8 | 11.3 | 0.00 | 0.91 | 0.03 | 89 | 1012.9 |
| 20260903173031 | 13 | 30 | 1.6 | 8.0 | 0.00 | 0.91 | 0.03 | 93 | 1013.0 |
| 20260903171606 | 11 | 60 | 1.6 | 6.4 | 0.00 | 0.91 | 0.03 | 95 | 1013.1 |
| 20260903170030 | 10 | 30 | 1.6 | 8.0 | 0.00 | 0.91 | 0.03 | 96 | 1013.0 |
| 20260903163146 | 10 | 344 | 1.6 | 6.4 | 0.00 | 0.91 | 0.03 | 97 | 1013.0 |
| 20260903161602 | 9 | 67 | 0.0 | 4.8 | 0.00 | 0.91 | 0.03 | 97 | 1013.1 |
| 20260903160040 | 8 | 67 | 1.6 | 6.4 | 0.00 | 0.91 | 0.03 | 97 | 1013.2 |
| 20260903154529 | 8 | 270 | 1.6 | 8.0 | 0.00 | 0.91 | 0.03 | 97 | 1013.1 |
| 20260903153031 | 8 | 269 | 1.6 | 6.4 | 0.00 | 0.91 | 0.03 | 97 | 1013.0 |
| 20260903151606 | 7 | 39 | 1.6 | 9.7 | 0.00 | 0.91 | 0.03 | 97 | 1013.1 |
| 20260903144529 | 7 | 271 | 1.6 | 8.0 | 0.00 | 0.91 | 0.03 | 97 | 1012.8 |
| 20260903143102 | 6 | 294 | 1.6 | 4.8 | 0.00 | 0.91 | 0.03 | 97 | 1012.8 |
| 20260903141532 | 6 | 274 | 1.6 | 6.4 | 0.00 | 0.91 | 0.03 | 97 | 1012.7 |
| 20260903134531 | 6 | 276 | 0.0 | 4.8 | 0.00 | 0.91 | 0.03 | 97 | 1012.4 |
| 20260903133031 | 5 | 195 | 1.6 | 8.0 | 0.00 | 0.91 | 0.03 | 97 | 1012.3 |
| 20260903131528 | 5 | 169 | 0.0 | 4.8 | 0.00 | 0.91 | 0.03 | 97 | 1012.2 |
| 20260903123031 | 5 | 145 | 0.0 | 4.8 | 0.00 | 0.91 | 0.03 | 96 | 1012.3 |
| 20260903121530 | 5 | 321 | 0.0 | 3.2 | 0.00 | 0.91 | 0.03 | 96 | 1012.2 |
| 20260903120031 | 5 | 131 | 1.6 | 6.4 | 0.00 | 0.91 | 0.03 | 96 | 1012.2 |
| 20260903113031 | 5 | 167 | 1.6 | 6.4 | 0.00 | 0.91 | 0.03 | 96 | 1012.3 |
| 20260903111530 | 5 | 179 | 3.2 | 9.7 | 0.00 | 0.91 | 0.03 | 96 | 1012.1 |
| 20260903110030 | 5 | 215 | 3.2 | 9.7 | 0.00 | 0.91 | 0.03 | 96 | 1012.0 |
| 20260903104647 | 5 | 165 | 1.6 | 6.4 | 0.00 | 0.91 | 0.03 | 96 | 1012.0 |
| 20260903101530 | 6 | 159 | 4.8 | 9.7 | 0.00 | 0.91 | 0.03 | 96 | 1011.7 |
| 20260903100031 | 6 | 151 | 3.2 | 9.7 | 0.03 | 0.91 | 0.03 | 96 | 1011.8 |
| 20260903093031 | 6 | 282 | 0.0 | 1.6 | 0.03 | 0.91 | 0.03 | 96 | 1011.9 |
| 20260903091530 | 6 | 141 | 3.2 | 8.0 | 0.03 | 0.91 | 0.00 | 96 | 1011.8 |
| 20260903090030 | 6 | 195 | 0.0 | 4.8 | 0.00 | 0.89 | 0.00 | 96 | 1012.0 |
| 20260903084529 | 7 | 171 | 1.6 | 6.4 | 0.00 | 0.89 | 0.00 | 96 | 1012.0 |
| 20260903083108 | 7 | 149 | 3.2 | 9.7 | 0.00 | 0.89 | 0.00 | 96 | 1011.9 |
| 20260903081607 | 7 | 154 | 4.8 | 8.0 | 0.00 | 0.89 | 0.00 | 96 | 1011.9 |
| 20260903080029 | 7 | 147 | 4.8 | 8.0 | 0.00 | 0.89 | 0.00 | 96 | 1011.8 |
| 20260903073030 | 7 | 158 | 1.6 | 6.4 | 0.00 | 0.89 | 0.00 | 95 | 1011.4 |
| 20260903071530 | 7 | 254 | 0.0 | 6.4 | 0.00 | 0.89 | 0.00 | 95 | 1011.5 |
| 20260903070029 | 7 | 249 | 1.6 | 6.4 | 0.00 | 0.89 | 0.00 | 95 | 1011.4 |
| 20260903064530 | 7 | 225 | 1.6 | 8.0 | 0.00 | 0.89 | 0.89 | 95 | 1011.4 |
| 20260903063028 | 7 | 28 | 0.0 | 4.8 | 0.00 | 0.89 | 0.89 | 95 | 1011.5 |
| 20260903060105 | 7 | 289 | 0.0 | 6.4 | 0.00 | 0.89 | 0.89 | 95 | 1011.6 |
| 20260903054532 | 8 | 134 | 1.6 | 4.8 | 0.00 | 0.89 | 0.89 | 94 | 1011.5 |
| 20260903053030 | 8 | 19 | 0.0 | 4.8 | 0.00 | 0.89 | 0.89 | 94 | 1011.5 |
| 20260903051531 | 8 | 294 | 3.2 | 9.7 | 0.00 | 0.89 | 0.89 | 94 | 1011.3 |
| 20260903050030 | 8 | 332 | 4.8 | 9.7 | 0.00 | 0.89 | 0.89 | 94 | 1011.3 |
| 20260903043056 | 9 | 246 | 0.0 | 6.4 | 0.00 | 0.89 | 0.89 | 94 | 1011.1 |
| 20260903041530 | 10 | 239 | 1.6 | 9.7 | 0.00 | 0.89 | 0.89 | 94 | 1011.0 |
| 20260903040030 | 10 | 226 | 4.8 | 12.9 | 0.00 | 0.89 | 0.89 | 94 | 1010.7 |
| 20260903034530 | 10 | 201 | 4.8 | 14.5 | 0.00 | 0.89 | 0.89 | 94 | 1010.7 |
| 20260903031531 | 11 | 233 | 1.6 | 8.0 | 0.13 | 0.89 | 0.89 | 94 | 1010.6 |
| 20260903030032 | 11 | 187 | 4.8 | 8.0 | 0.20 | 0.89 | 0.89 | 94 | 1010.5 |
| 20260903023030 | 12 | 118 | 1.6 | 6.4 | 0.36 | 0.86 | 0.76 | 94 | 1010.4 |
| 20260903021606 | 12 | 356 | 0.0 | 6.4 | 0.28 | 0.76 | 0.69 | 94 | 1010.3 |
| 20260903020031 | 13 | 315 | 3.2 | 11.3 | 0.23 | 0.69 | 0.51 | 94 | 1009.9 |
| 20260903014530 | 13 | 290 | 4.8 | 11.3 | 0.10 | 0.51 | 0.51 | 94 | 1009.4 |
| 20260903013033 | 12 | 216 | 0.0 | 4.8 | 0.13 | 0.51 | 0.48 | 93 | 1009.5 |
| 20260903011530 | 13 | 218 | 1.6 | 4.8 | 0.13 | 0.48 | 0.46 | 93 | 1009.7 |
| 20260903004530 | 13 | 267 | 3.2 | 9.7 | 0.13 | 0.41 | 0.38 | 92 | 1009.7 |